Home > Weather > Enugu > Past weeks

Flag for Nigeria Past Weather in Enugu, Nigeria — Yesterday and Last 2 Weeks

Now
81 °F

Partly sunny.


Feels Like: 85 °F
Forecast: 72 / 82 °F
Wind: 3 mph from Northwest

Location: Malabo/Fernando Poo

Current Time: Jul 26, 2016 at 3:10:14 PM

Latest Report: Jul 26, 2016 at 2:00 PM


Visibility: N/A

Pressure: 29.92 "Hg

Humidity: 79%

Dew Point: 73 °F

Location of EnuguLocation

Past Weather in Enugu — Graph

°F

Enugu Temperature Yesterday

Maximum temperature yesterday: 81 °F (at 9:00 AM)
Minimum temperature yesterday: 75 °F (at 2:00 AM)
Average temperature yesterday: 77 °F

High & Low Weather Summary for the Past Weeks

 TemperatureHumidityPressure
High86 °F (Jul 14, 1:00 PM)94% (Jul 11, 10:00 PM)30.01 "Hg (Jul 11, 10:00 PM)
Low70 °F (Jul 21, 4:00 AM)66% (Jul 19, 2:00 PM)29.86 "Hg (Jul 14, 4:00 PM)
Average77 °F86%29.94 "Hg
* Reported Jul 11 2:00 PM — Jul 26 2:00 PM, Enugu, Weather by CustomWeather, © 2016

Note: Actual official high and low records may vary slightly from our data, if they occured in-between our weather recording intervals... More about our weather records

Advertising

Enugu Weather History for the Previous 24 Hours

Scroll right to see more
 ConditionsComfort  
Time TempWeatherWind HumidityBarometerVisibility
2:00 PM
Tue, Jul 26
81 °FPartly sunny.3 mph79%29.92 "HgN/A
1:00 PM81 °FBroken clouds.2 mph79%29.95 "HgN/A
12:00 PM79 °FBroken clouds.1 mph84%29.95 "HgN/A
11:00 AM79 °FBroken clouds.3 mph84%29.98 "HgN/A
10:00 AM79 °FBroken clouds.3 mph84%29.98 "HgN/A
3:00 AM77 °FThunderstorms. Passing clouds.6 mph79%29.92 "HgN/A
2:00 AM77 °FPassing clouds.7 mph79%29.92 "HgN/A
1:00 AM77 °FPassing clouds.7 mph83%29.95 "HgN/A
12:00 AM75 °FPassing clouds.5 mph89%29.95 "HgN/A
11:00 PM
Mon, Jul 25
75 °FPassing clouds.7 mph89%29.95 "HgN/A
10:00 PM75 °FPassing clouds.7 mph89%29.95 "HgN/A
9:00 PM77 °FPassing clouds.8 mph83%29.95 "HgN/A
8:00 PM77 °FPassing clouds.9 mph79%29.92 "HgN/A
7:00 PM75 °FPassing clouds.9 mph89%29.89 "HgN/A
6:00 PM77 °FPartly sunny.10 mph83%29.89 "HgN/A
5:00 PM79 °FPartly sunny.10 mph79%29.89 "HgN/A
4:01 PM77 °FBroken clouds.10 mph89%29.89 "HgN/A
3:00 PM79 °FPartly sunny.13 mph84%29.89 "Hg5 mi
Weather by CustomWeather, © 2016

See weather overviewHow to use our weather pages